DW0893 Weather Reports


time (UTC)temp
C
wind
direction
speed
KPH
gust
KPH
rain 1hr
cm
rain 24hr
cm
rain mn
cm
humidity
%
barometer
mb
20260502130555 21 96 3.2 14.5 0.00 0.00 0.00 50 1014.9
20260502123556 21 76 0.0 9.7 0.00 0.00 0.00 50 1015.4
20260502123057 21 76 3.2 11.3 0.00 0.00 0.00 50 1015.3
20260502122556 21 79 3.2 11.3 0.00 0.00 0.00 49 1015.4
20260502122057 21 76 6.4 11.3 0.00 0.00 0.00 50 1015.3
20260502121601 21 0 3.2 12.9 0.00 0.00 0.00 51 1015.6
20260502121056 20 82 0.0 12.9 0.00 0.00 0.00 54 1015.6
20260502120555 20 82 3.2 12.9 0.00 0.00 0.00 54 1015.7
20260502120113 20 78 0.0 9.7 0.00 0.00 0.00 54 1015.8
20260502115555 20 0 3.2 9.7 0.00 0.00 0.00 55 1015.9
20260502115057 20 80 0.0 14.5 0.00 0.00 0.00 56 1015.8
20260502114602 20 80 4.8 14.5 0.00 0.00 0.00 56 1015.9
20260502114056 20 72 1.6 12.9 0.00 0.00 0.00 57 1016.0
20260502113559 20 62 4.8 12.9 0.00 0.00 0.00 57 1016.1
20260502113057 19 99 4.8 12.9 0.00 0.00 0.00 56 1016.2
20260502112558 19 141 1.6 12.9 0.00 0.00 0.00 57 1016.4
20260502112058 19 149 3.2 12.9 0.00 0.00 0.00 58 1016.5
20260502111602 19 159 0.0 11.3 0.00 0.00 0.00 59 1016.3
20260502111056 19 164 4.8 11.3 0.00 0.00 0.00 59 1016.4
20260502110556 18 158 1.6 9.7 0.00 0.00 0.00 59 1016.7
20260502110059 18 0 0.0 11.3 0.00 0.00 0.00 58 1016.8
20260502105555 18 0 3.2 11.3 0.00 0.00 0.00 61 1016.7
20260502105057 18 164 1.6 9.7 0.00 0.00 0.00 62 1017.0
20260502104600 17 167 3.2 9.7 0.00 0.00 0.00 63 1017.0
20260502104100 17 166 0.0 6.4 0.00 0.00 0.00 63 1017.2
20260502103558 17 166 0.0 6.4 0.00 0.00 0.00 66 1017.2
20260502103108 17 0 0.0 11.3 0.00 0.00 0.00 65 1017.4
20260502102558 17 166 3.2 11.3 0.00 0.00 0.00 66 1017.4
20260502102101 16 0 1.6 11.3 0.00 0.00 0.00 67 1017.3
20260502101557 16 158 4.8 11.3 0.00 0.00 0.00 68 1017.5
20260502101057 16 0 1.6 9.7 0.00 0.00 0.00 68 1017.6
20260502100558 16 0 0.0 9.7 0.00 0.00 0.00 70 1017.6
20260502100120 16 138 1.6 8.0 0.00 0.00 0.00 72 1017.6
20260502091057 12 0 0.0 4.8 0.00 0.00 0.00 85 1018.2
20260502090558 12 0 0.0 1.6 0.00 0.00 0.00 86 1018.1
20260502090104 12 0 0.0 3.2 0.00 0.00 0.00 87 1018.2
20260502071053 9 209 1.6 6.4 0.00 0.00 0.00 94 1018.8
20260502070554 9 218 0.0 6.4 0.00 0.00 0.00 94 1018.7
20260502070059 9 218 0.0 3.2 0.00 0.00 0.00 94 1018.8
20260502065558 9 0 0.0 4.8 0.00 0.00 0.00 94 1018.8
20260502065056 9 0 0.0 4.8 0.00 0.00 0.00 94 1018.8
20260502064609 9 226 0.0 4.8 0.00 0.00 0.00 94 1018.8
20260502064055 8 226 0.0 4.8 0.00 0.00 0.00 94 1018.8
20260502063554 8 226 0.0 4.8 0.00 0.00 0.00 94 1018.8
20260502063103 8 226 0.0 3.2 0.00 0.00 0.00 94 1018.6
20260502062554 8 0 0.0 4.8 0.00 0.00 0.00 94 1018.7
20260502062054 8 0 0.0 4.8 0.00 0.00 0.00 94 1018.7
20260502061601 8 0 0.0 4.8 0.00 0.00 0.00 94 1018.7
20260502061057 8 0 0.0 6.4 0.00 0.00 0.00 94 1018.7
20260502060556 8 0 0.0 6.4 0.00 0.00 0.00 94 1018.8
20260502060100 8 0 0.0 6.4 0.00 0.00 0.00 94 1018.8
20260502055600 8 0 1.6 8.0 0.00 0.00 0.00 94 1018.8
20260502055056 8 0 1.6 8.0 0.00 0.00 0.00 94 1018.8
20260502054600 8 0 0.0 8.0 0.00 0.00 0.00 94 1018.7
20260502054054 8 0 1.6 8.0 0.00 0.00 0.00 94 1018.7
20260502053558 8 229 1.6 8.0 0.00 0.00 0.00 94 1018.7
20260502053057 8 0 3.2 8.0 0.00 0.00 0.00 94 1018.7
20260502052554 8 228 3.2 8.0 0.00 0.00 0.00 94 1018.7
20260502052055 8 228 3.2 8.0 0.00 0.00 0.00 94 1018.8
20260502051659 8 0 3.2 8.0 0.00 0.00 0.00 94 1018.7
20260502051056 8 227 1.6 8.0 0.00 0.00 0.00 94 1018.7
20260502050556 9 227 3.2 8.0 0.00 0.00 0.00 94 1018.7
20260502050059 9 226 3.2 8.0 0.00 0.00 0.00 94 1018.7
20260502045556 9 232 0.0 6.4 0.00 0.00 0.00 94 1018.6
20260502045056 9 232 1.6 6.4 0.00 0.00 0.00 94 1018.6
20260502044607 9 232 1.6 6.4 0.00 0.00 0.00 94 1018.6
20260502044056 9 232 3.2 6.4 0.00 0.00 0.00 94 1018.5
20260502043556 9 236 0.0 8.0 0.00 0.00 0.00 94 1018.6
20260502043109 9 236 3.2 8.0 0.00 0.00 0.00 94 1018.5
20260502042600 9 235 1.6 8.0 0.00 0.00 0.00 94 1018.5
20260502042055 9 0 0.0 8.0 0.00 0.00 0.00 94 1018.5
20260502041556 9 235 1.6 8.0 0.00 0.00 0.00 94 1018.6
20260502041101 9 0 1.6 6.4 0.00 0.00 0.00 94 1018.7
20260502040555 9 0 1.6 6.4 0.00 0.00 0.00 94 1018.7
20260502040059 9 0 0.0 6.4 0.00 0.00 0.00 94 1018.7
20260502035557 9 0 0.0 6.4 0.00 0.00 0.00 94 1018.8
20260502035057 10 236 1.6 6.4 0.00 0.00 0.00 94 1018.8
20260502034556 10 235 1.6 11.3 0.00 0.00 0.00 94 1018.8
20260502034057 10 0 0.0 11.3 0.00 0.00 0.00 94 1018.8
20260502033556 10 235 3.2 11.3 0.00 0.00 0.00 94 1018.9
20260502033057 10 231 0.0 6.4 0.00 0.00 0.00 94 1018.8
20260502032556 10 230 1.6 8.0 0.00 0.00 0.00 94 1019.0
20260502032056 9 0 0.0 8.0 0.00 0.00 0.00 94 1019.0
20260502031609 9 231 0.0 6.4 0.00 0.00 0.00 94 1019.0
20260502031056 9 231 1.6 11.3 0.00 0.00 0.00 93 1019.0
20260502030558 9 231 1.6 11.3 0.00 0.00 0.00 93 1018.9
20260502030058 9 232 3.2 11.3 0.00 0.00 0.00 93 1019.0
20260502025555 9 230 0.0 8.0 0.00 0.00 0.00 93 1019.1
20260502025056 9 230 1.6 8.0 0.00 0.00 0.00 93 1019.2
20260502024557 9 231 0.0 6.4 0.00 0.00 0.00 93 1019.2
20260502024057 9 0 0.0 6.4 0.00 0.00 0.00 93 1019.2
20260502023557 9 230 0.0 8.0 0.00 0.00 0.00 92 1019.2
20260502023057 9 230 3.2 8.0 0.00 0.00 0.00 92 1019.2
20260502022556 9 232 1.6 6.4 0.00 0.00 0.00 92 1019.2
20260502022058 9 232 1.6 4.8 0.00 0.00 0.00 92 1019.2
20260502021558 9 232 0.0 6.4 0.00 0.00 0.00 91 1019.2
20260502021056 9 232 1.6 6.4 0.00 0.00 0.00 91 1019.2
20260502020556 9 231 1.6 11.3 0.00 0.00 0.00 91 1019.2
20260502020107 9 231 3.2 11.3 0.00 0.00 0.00 91 1019.2
20260502015559 9 228 1.6 8.0 0.00 0.00 0.00 91 1019.2
20260502015059 9 0 3.2 8.0 0.00 0.00 0.00 91 1019.1
20260502014557 9 0 1.6 6.4 0.00 0.00 0.00 91 1019.3
20260502014055 9 0 1.6 6.4 0.00 0.00 0.00 90 1019.3
20260502013558 9 226 1.6 6.4 0.00 0.00 0.00 90 1019.4
20260502013107 9 0 1.6 6.4 0.00 0.00 0.00 90 1019.3
20260502012556 9 0 0.0 0.0 0.00 0.00 0.00 90 1019.4
20260502012056 9 0 0.0 3.2 0.00 0.00 0.00 89 1019.5
20260502011559 9 0 0.0 4.8 0.00 0.00 0.00 89 1019.5
20260502011056 9 0 0.0 4.8 0.00 0.00 0.00 88 1019.4
20260502010559 9 0 0.0 1.6 0.00 0.00 0.00 88 1019.4
20260502010058 10 0 0.0 1.6 0.00 0.00 0.00 88 1019.4
20260502005559 10 0 0.0 0.0 0.00 0.00 0.00 88 1019.5
20260502005059 10 0 0.0 0.0 0.00 0.00 0.00 88 1019.5
20260502004559 10 0 0.0 0.0 0.00 0.00 0.00 88 1019.5
20260502004059 10 0 0.0 1.6 0.00 0.00 0.00 88 1019.6
20260502003602 10 0 0.0 1.6 0.00 0.00 0.00 88 1019.7
20260502003057 10 0 0.0 1.6 0.00 0.00 0.00 88 1019.8
20260502002558 10 0 0.0 3.2 0.00 0.00 0.00 89 1019.9
20260502002055 10 0 0.0 3.2 0.00 0.00 0.00 89 1019.8
20260502001558 10 0 0.0 4.8 0.00 0.00 0.00 88 1020.0
20260502001055 10 0 0.0 4.8 0.00 0.00 0.00 88 1020.0
20260502000558 10 0 0.0 4.8 0.00 0.00 0.00 88 1020.0
20260502000101 10 0 1.6 8.0 0.00 0.00 0.00 88 1020.1
20260501235556 10 0 1.6 8.0 0.00 0.00 0.00 88 1020.2
20260501235056 10 226 1.6 6.4 0.00 0.00 0.00 88 1020.1
20260501234601 10 0 0.0 4.8 0.00 0.00 0.00 87 1020.1
20260501234056 10 0 0.0 6.4 0.00 0.00 0.00 87 1020.1
20260501233557 10 0 1.6 6.4 0.00 0.00 0.00 87 1020.1
20260501233100 10 226 0.0 6.4 0.00 0.00 0.00 87 1020.2
20260501232556 10 226 1.6 6.4 0.00 0.00 0.00 86 1020.1
20260501232103 10 226 1.6 4.8 0.00 0.00 0.00 86 1020.2
20260501231606 10 226 1.6 4.8 0.00 0.00 0.00 86 1020.2
20260501231056 10 0 0.0 4.8 0.00 0.00 0.00 85 1020.0
20260501230558 10 226 0.0 4.8 0.00 0.00 0.00 85 1020.2
20260501230058 11 0 0.0 3.2 0.00 0.00 0.00 84 1020.2
20260501225558 11 0 0.0 4.8 0.00 0.00 0.00 84 1020.3
20260501225057 11 0 0.0 4.8 0.00 0.00 0.00 84 1020.3
20260501224558 11 0 0.0 4.8 0.00 0.00 0.00 83 1020.3
20260501224058 11 226 0.0 4.8 0.00 0.00 0.00 82 1020.3
20260501223556 11 0 0.0 8.0 0.00 0.00 0.00 82 1020.3
20260501223058 11 0 1.6 8.0 0.00 0.00 0.00 82 1020.2
20260501222557 11 226 0.0 4.8 0.00 0.00 0.00 81 1020.3
20260501222102 11 0 0.0 4.8 0.00 0.00 0.00 80 1020.2
20260501221555 11 0 0.0 3.2 0.00 0.00 0.00 80 1020.3
20260501221056 11 226 0.0 4.8 0.00 0.00 0.00 80 1020.2
20260501220556 11 0 0.0 6.4 0.00 0.00 0.00 79 1020.2
20260501220058 11 0 1.6 11.3 0.00 0.00 0.00 79 1020.2
20260501215600 12 0 3.2 11.3 0.00 0.00 0.00 79 1020.1
20260501215057 12 224 1.6 11.3 0.00 0.00 0.00 78 1020.2
20260501214603 12 230 1.6 11.3 0.00 0.00 0.00 77 1020.1
20260501214057 12 232 3.2 14.5 0.00 0.00 0.00 77 1020.1
20260501213556 12 227 4.8 16.1 0.00 0.00 0.00 76 1020.1
20260501213103 12 236 6.4 16.1 0.00 0.00 0.00 75 1020.2
20260501212558 12 225 6.4 16.1 0.00 0.00 0.00 74 1020.2
20260501212100 13 231 0.0 12.9 0.00 0.00 0.00 73 1020.3
20260501211600 13 232 1.6 12.9 0.00 0.00 0.00 72 1020.4
20260501211056 13 214 4.8 12.9 0.00 0.00 0.00 72 1020.4
20260501210556 13 206 1.6 11.3 0.00 0.00 0.00 71 1020.2
20260501210056 13 205 1.6 9.7 0.00 0.00 0.00 71 1020.1
20260501205556 13 203 1.6 8.0 0.00 0.00 0.00 71 1020.2
20260501205056 13 202 1.6 9.7 0.00 0.00 0.00 70 1020.2
20260501204559 14 200 3.2 12.9 0.00 0.00 0.00 70 1020.1
20260501204055 14 0 1.6 12.9 0.00 0.00 0.00 70 1020.0
20260501203556 14 0 0.0 11.3 0.00 0.00 0.00 71 1020.0
20260501203101 15 0 0.0 8.0 0.00 0.00 0.00 71 1020.0
20260501202557 15 0 0.0 8.0 0.00 0.00 0.00 71 1020.0
20260501202057 15 165 1.6 9.7 0.00 0.00 0.00 71 1019.8
20260501201557 15 184 1.6 9.7 0.00 0.00 0.00 71 1019.9
20260501201059 15 0 1.6 8.0 0.00 0.00 0.00 71 1019.9
20260501200559 15 202 1.6 8.0 0.00 0.00 0.00 71 1019.9
20260501200057 15 202 3.2 12.9 0.00 0.00 0.00 70 1020.0
20260501195556 15 202 0.0 12.9 0.00 0.00 0.00 70 1020.0
20260501195058 16 201 3.2 12.9 0.00 0.00 0.00 70 1019.9
20260501194602 16 199 3.2 11.3 0.00 0.00 0.00 69 1019.8
20260501194057 16 182 3.2 12.9 0.00 0.00 0.00 69 1019.9
20260501193558 16 201 4.8 12.9 0.00 0.00 0.00 68 1019.9
20260501193056 16 0 4.8 11.3 0.00 0.00 0.00 68 1019.6
20260501192556 16 0 3.2 9.7 0.00 0.00 0.00 68 1019.7
20260501192056 16 208 1.6 9.7 0.00 0.00 0.00 68 1019.5
20260501191605 17 0 3.2 9.7 0.00 0.00 0.00 67 1019.6
20260501191057 17 199 3.2 9.7 0.00 0.00 0.00 67 1019.6
20260501190559 17 207 1.6 9.7 0.00 0.00 0.00 66 1019.6
20260501190116 17 208 1.6 9.7 0.00 0.00 0.00 66 1019.5
20260501185556 17 0 0.0 6.4 0.00 0.00 0.00 66 1019.5
20260501185058 17 201 1.6 6.4 0.00 0.00 0.00 65 1019.5
20260501184558 17 200 1.6 12.9 0.00 0.00 0.00 65 1019.5
20260501184101 17 200 1.6 12.9 0.00 0.00 0.00 65 1019.4
20260501183600 17 193 3.2 12.9 0.00 0.00 0.00 64 1019.5
20260501183100 18 219 4.8 11.3 0.00 0.00 0.00 64 1019.5
20260501182557 18 226 1.6 11.3 0.00 0.00 0.00 64 1019.5
20260501182057 18 224 1.6 16.1 0.00 0.00 0.00 64 1019.5
20260501181602 18 221 6.4 16.1 0.00 0.00 0.00 63 1019.3
20260501181057 18 190 8.0 16.1 0.00 0.00 0.00 63 1019.3
20260501180557 18 240 6.4 19.3 0.00 0.00 0.00 62 1019.3
20260501180101 18 232 8.0 20.9 0.00 0.00 0.00 62 1019.3
20260501175558 18 206 9.7 20.9 0.00 0.00 0.00 62 1019.3
20260501175059 19 222 6.4 17.7 0.00 0.00 0.00 62 1019.4
20260501174611 19 190 1.6 17.7 0.00 0.00 0.00 62 1019.3
20260501174058 19 219 8.0 19.3 0.00 0.00 0.00 62 1019.4
20260501173557 19 0 6.4 22.5 0.00 0.00 0.00 61 1019.3
20260501173109 19 251 9.7 22.5 0.00 0.00 0.00 61 1019.3
20260501172558 20 225 6.4 17.7 0.00 0.00 0.00 62 1019.4
20260501172058 20 211 8.0 19.3 0.00 0.00 0.00 62 1019.4
20260501171602 20 222 6.4 19.3 0.00 0.00 0.00 62 1019.5
20260501171057 20 215 6.4 19.3 0.00 0.00 0.00 63 1019.5
20260501170558 20 0 8.0 19.3 0.00 0.00 0.00 62 1019.4
20260501165558 20 233 11.3 20.9 0.00 0.00 0.00 62 1019.4
20260501165058 20 207 12.9 24.1 0.00 0.00 0.00 61 1019.4
20260501164559 20 228 9.7 24.1 0.00 0.00 0.00 61 1019.4
20260501164057 20 244 9.7 22.5 0.00 0.00 0.00 62 1019.5
20260501163601 20 253 12.9 22.5 0.00 0.00 0.00 61 1019.4
20260501163059 20 269 12.9 22.5 0.00 0.00 0.00 62 1019.4
20260501162557 20 240 11.3 20.9 0.00 0.00 0.00 62 1019.4
20260501162057 20 222 8.0 20.9 0.00 0.00 0.00 62 1019.5
20260501161557 20 238 4.8 22.5 0.00 0.00 0.00 62 1019.5
20260501161059 20 226 8.0 25.7 0.00 0.00 0.00 62 1019.6
20260501160559 20 350 8.0 25.7 0.00 0.00 0.00 62 1019.5
20260501160101 21 233 9.7 25.7 0.00 0.00 0.00 62 1019.5
20260501155559 21 215 6.4 20.9 0.00 0.00 0.00 62 1019.7
20260501155100 21 236 8.0 20.9 0.00 0.00 0.00 61 1019.7
20260501154609 21 110 3.2 22.5 0.00 0.00 0.00 61 1019.6
20260501154056 21 168 4.8 22.5 0.00 0.00 0.00 61 1019.6
20260501153557 21 222 12.9 22.5 0.00 0.00 0.00 61 1019.5
20260501153101 21 228 8.0 20.9 0.00 0.00 0.00 60 1019.5
20260501152557 21 207 9.7 22.5 0.00 0.00 0.00 59 1019.7
20260501152056 21 350 6.4 22.5 0.00 0.00 0.00 59 1019.5
20260501151556 21 214 8.0 20.9 0.00 0.00 0.00 59 1019.6
20260501151056 22 271 6.4 19.3 0.00 0.00 0.00 58 1019.6
20260501150556 22 235 6.4 19.3 0.00 0.00 0.00 57 1019.7
20260501150059 22 285 6.4 19.3 0.00 0.00 0.00 58 1019.6
20260501145556 22 188 4.8 19.3 0.00 0.00 0.00 57 1019.6
20260501145056 22 236 8.0 19.3 0.00 0.00 0.00 57 1019.6
20260501144604 22 213 8.0 19.3 0.00 0.00 0.00 57 1019.7
20260501144059 22 247 11.3 20.9 0.00 0.00 0.00 56 1019.7
20260501143559 22 230 8.0 20.9 0.00 0.00 0.00 56 1019.7
20260501143058 22 249 8.0 19.3 0.00 0.00 0.00 56 1019.7